{"data":{"norad_id":49108,"intl_designator":"2021-075AK","name":"ONEWEB-0330","alt_names":[],"object_type":"PAYLOAD","status":"ACTIVE","operator":null,"country":"UK","launch_date":"2021-08-21","launch_site_code":"TYMSC","launch_vehicle":null,"mission":null,"orbit_class":"UNKNOWN","rcs_meters":null,"size_class":null,"mass_kg":null,"dimensions":null,"purposes":["comms"],"wikipedia_slug":null,"has_3d_model":false,"image_url":null,"decayed_at":null,"tle_current":{"epoch":"2026-09-19T13:46:34.506336Z","epoch_age_seconds":105837,"freshness":"FRESH","line1":"1 49108U 21075AK  26262.57401049 -.00000001  00000+0 -36490-4 0  9993","line2":"2 49108  87.9206 347.1398 0001774 104.9670 255.1658 13.17647974246055","mean_motion":13.17647974,"eccentricity":0.0001774,"inclination_deg":87.9206,"raan_deg":347.1398,"arg_perigee_deg":104.967,"mean_anomaly_deg":255.1658,"bstar":-3.649e-5,"rev_number":24605,"period_min":109.28563838098,"perigee_km":1192.3739435286,"apogee_km":1195.0604373954,"semimajor_km":7571.854190462,"source":"CELESTRAK","updated_at":"2026-09-20T09:00:44.659850Z"}}}